Location: Banff
(51.1667°N, 115.5667°W)
Time: 21:41:17
(UTC+00:00)

deb Explorer IX - Pass Details

Date: 29 November 2020
Orbit: 536 x 1104 km, 38.8° (Epoch: 23 January)

Event Time Altitude Azimuth Distance (km) Brightness Sun altitude
Rises 03:09:16 0° 250° (WSW) 3,272 ? -32.0°
Reaches altitude 10° 03:12:34 10° 233° (SW) 2,222 ? -32.5°
Enters shadow 03:14:29 16° 213° (SSW) 1,785 ? -32.8°
